User: anonymous   Login
Location: Unspecified
(0.0000°N, 0.0000°E)
Time: 19:56:56
(UTC+00:00)
Language:

AAUSAT 4 - Orbit

View from above orbital plane
View from above orbital plane
View from above satellite
View from above satellite

Ground track
Ground track

The orbit data is extracted from the following two-line orbital elements,

1 41460U 16025E   17269.38008268  .00002648  00000-0  14470-3 0  9998
2 41460  98.1692 312.8321 0164517 309.9790  48.7086 15.04482344 77803
Epoch (UTC): 26 September 2017 09:07:19
Eccentricity: 0.0164517
inclination: 98.1692°
perigee height: 439 km
apogee height: 667 km
right ascension of ascending node: 312.8321°
argument of perigee: 309.9790°
revolutions per day: 15.04482344
mean anomaly at epoch: 48.7086°
orbit number at epoch: 7780

The dashed part of the orbit path shows where the satellite is in the earth's shadow,  

DLR